IZ0ANE-13 Weather Reports


Display with metric or nautical units.
time (UTC)temp
F
wind
direction
speed
MPH
gust
MPH
rain 1hr
in
rain 24hr
in
rain mn
in
humidity
%
barometer
mb
20260504014003 54 0 0.0 0.0 0.00 0.00 0.00 85 1019.1
20260504012003 53 186 0.0 2.0 0.00 0.00 0.00 85 1019.3
20260504010003 55 13 0.0 1.0 0.00 0.00 0.00 82 1019.1
20260504004024 55 95 1.0 2.0 0.00 0.00 0.00 83 1019.2
20260504002024 55 0 0.0 0.0 0.00 0.00 0.00 84 1019.3
20260504000003 55 0 0.0 0.0 0.00 0.00 0.00 82 1019.1
20260503234003 56 126 0.0 2.0 0.00 0.00 0.00 81 1019.1
20260503232003 57 54 0.0 1.0 0.00 0.00 0.00 79 1019.4
20260503230003 57 48 1.0 2.0 0.00 0.00 0.00 79 1019.4
20260503224003 58 200 0.0 2.0 0.00 0.00 0.00 78 1019.4
20260503222003 58 153 1.0 3.0 0.00 0.00 0.00 78 1019.4
20260503220003 58 31 0.0 1.0 0.00 0.00 0.00 77 1019.2
20260503214003 59 164 1.0 3.0 0.00 0.00 0.00 75 1019.2
20260503212003 60 58 1.0 2.0 0.00 0.00 0.00 73 1019.0
20260503210003 62 35 1.0 2.0 0.00 0.00 0.00 71 1018.9
20260503204003 61 166 0.0 1.0 0.00 0.00 0.00 75 1018.9
20260503202003 61 146 0.0 2.0 0.00 0.00 0.00 75 1018.8
20260503200003 63 235 1.0 4.0 0.00 0.00 0.00 73 1018.6
20260503194003 64 227 2.0 6.0 0.00 0.00 0.00 70 1018.5
20260503192024 64 179 0.0 3.0 0.00 0.00 0.00 66 1018.4
20260503190003 65 113 1.0 3.0 0.00 0.00 0.00 65 1018.1
20260503184003 65 239 0.0 1.0 0.00 0.00 0.00 66 1018.0
20260503182024 67 311 1.0 2.0 0.00 0.00 0.00 62 1017.7
20260503180003 67 291 1.0 3.0 0.00 0.00 0.00 62 1017.6
20260503174003 67 219 1.0 2.0 0.00 0.00 0.00 61 1017.4
20260503172003 68 227 2.0 4.0 0.00 0.00 0.00 60 1017.3
20260503072003 60 81 1.0 2.0 0.00 0.00 0.00 56 1021.3
20260503054003 50 121 1.0 3.0 0.00 0.00 0.00 76 1021.5
20260503052003 51 214 0.0 3.0 0.00 0.00 0.00 71 1021.3
20260503050003 47 124 0.0 1.0 0.00 0.00 0.00 81 1021.2
20260503044024 46 195 0.0 2.0 0.00 0.00 0.00 82 1021.0
20260503042003 46 126 0.0 1.0 0.00 0.00 0.00 82 1020.9
20260503040003 47 149 0.0 2.0 0.00 0.00 0.00 80 1020.9
20260503034004 47 0 0.0 0.0 0.00 0.00 0.00 80 1020.8
20260503032003 46 58 1.0 2.0 0.00 0.00 0.00 82 1020.8
20260503030004 46 161 0.0 2.0 0.00 0.00 0.00 82 1020.8
20260503024003 47 194 0.0 1.0 0.00 0.00 0.00 80 1020.6
20260503022003 48 194 0.0 1.0 0.00 0.00 0.00 78 1020.7